SCP
0 0 0 0 0 0 0 0 0 0 0 0 0 2 2 3 6 6 7 5 7 3 5 2 2 2 1 1 2 1 1 0 1 0 3 2 2 1 1 1 1 1 0
0 0 0 0 0 0 0 0 0 0 1 0 0 1 3 3 3 5 6 6 7 5 5 3 3 3 2 3 4 3 1 1 1 2 2 3 1 1 1 0 0 0 0
0 0 0 0 0 0 0 0 0 0 0 1 0 1 5 7 7 5 8 6 4 6 6 4 4 5 2 2 4 4 2 1 1 3 2 4 2 1 0 0 0 0 0
0 0 0 0 0 0 0 0 0 0 0 1 0 2 1 3 4 4 5 7 6 6 5 4 4 8 3 2 3 4 3 3 2 4 2 3 3 1 0 0 0 0 0
0 0 0 0 0 0 0 0 0 0 0 1 3 1 2 1 1 3 4 5 7 6 4 4 5 6 4 3 4 3 5 2 3 3 3 2 3 3 2 2 0 0 0
0 0 0 0 0 0 0 0 0 0 0 0 1 2 5 3 2 2 3 4 5 5 6 5 5 5 6 5 4 7 6 3 2 1 4 3 4 3 3 1 1 0 0
0 0 0 0 0 0 0 0 0 0 0 0 1 2 3 5 5 5 4 4 4 4 6 5 5 5 5 5 5 7 6 6 5 5 7 5 1 1 0 0 0 0 0
0 0 0 0 0 0 0 0 0 0 0 0 0 1 4 3 3 3 3 4 3 3 5 6 4 5 4 4 5 4 8 6 7 5 6 0 0 0 0 0 0 0 0
0 0 0 0 0 0 0 0 0 0 0 0 0 0 1 4 3 3 5 4 4 3 3 3 4 4 4 5 4 4 5 9 6 0 0 0 0 0 0 0 0 0 0
0 0 0 0 0 0 0 0 0 0 0 0 0 0 0 1 2 2 2 3 3 2 2 3 4 4 3 5 6 6 7 0 0 0 0 0 0 0 0 0 0 0 0
0 0 0 0 0 0 0 0 0 0 0 0 0 0 0 0 1 1 1 1 2 2 2 1 3 3 3 4 6 1 0 0 0 0 0 0 0 0 0 0 0 0 0
0 0 0 0 0 0 0 0 0 0 0 0 0 0 0 0 1 1 1 1 1 1 2 2 2 2 3 3 0 0 0 0 0 0 0 0 0 0 0 0 0 0 0
0 0 0 0 0 0 0 0 0 0 0 0 0 0 0 0 0 1 1 1 1 1 1 2 1 0 0 0 0 0 0 0 0 0 0 0 0 0 0 0 0 0 0
0 0 0 0 0 0 0 0 0 0 0 0 0 0 0 0 0 1 1 1 1 1 2 1 1 0 0 0 0 0 0 0 0 0 0 0 0 0 0 0 0 0 0
0 0 0 0 0 0 0 -0 0 0 0 0 0 0 0 0 0 1 1 1 1 1 1 1 1 0 0 0 0 0 0 0 0 0 0 0 0 0 0 0 0 0 0
0 0 0 0 0 0 0 0 -0 0 0 0 0 0 0 0 0 0 1 1 0 2 2 2 2 0 0 0 0 0 0 0 0 0 0 0 0 0 0 0 0 0 0
0 0 0 0 0 0 0 0 -0 -0 -0 0 0 0 0 0 0 0 1 1 1 1 0 0 0 0 0 0 0 0 0 0 -0 0 0 0 0 0 0 0 0 0 -0
0 0 0 0 0 0 0 0 0 -0 -0 -0 0 0 0 0 0 1 1 1 0 0 0 0 0 0 0 0 0 0 0 0 0 0 0 0 0 0 0 0 -0 -0 0
0 0 0 0 0 0 -0 -0 0 -0 -0 -0 0 0 0 0 0 1 1 0 0 0 0 0 0 0 0 0 0 0 0 0 0 -0 0 0 0 0 0 -0 -0 0 0
0 -0 -0 -0 -0 -0 -0 -0 -0 -0 -0 -0 0 0 0 0 0 0 0 0 0 0 0 0 0 0 0 0 0 0 0 0 0 0 0 0 0 0 0 -0 0 0 0
0 0 -0 -0 -0 -0 0 0 0 0 -0 0 0 0 0 0 0 0 0 0 0 0 0 0 0 0 0 0 0 0 0 0 0 0 0 0 0 0 -0 -0 0 0 -0
0 -0 -0 -0 0 0 0 0 0 0 0 0 0 0 0 0 0 0 0 0 0 0 0 0 0 0 0 0 0 0 0 0 0 0 0 0 0 0 -0 0 0 0 -0
-0 -0 0 0 0 -0 0 0 0 0 0 0 0 0 0 0 0 0 0 0 0 0 0 0 0 0 0 0 0 0 0 0 0 0 0 0 -0 -0 0 0 0 0 0
-0 0 -0 -0 -0 0 0 0 -0 0 0 0 0 0 0 0 0 0 0 0 0 0 0 0 0 0 0 0 0 0 0 0 -0 -0 0 0 0 -0 0 0 0 0 0
-0 -0 -0 -0 -0 -0 0 0 0 0 0 0 0 0 0 0 0 0 0 0 0 0 0 0 0 0 0 0 0 0 0 0 0 0 0 -0 -0 -0 0 0 0 0 0
0 -0 -0 -0 -0 -0 0 0 0 -0 0 0 0 0 0 0 0 0 0 -0 -0 -0 0 0 0 0 0 0 0 0 0 0 0 0 -0 -0 -0 0 0 0 0 0 0
Wind_Speed_500mb
55 46 44 45 50 51 48 48 53 59 55 44 55 59 62 60 61 72 61 65 67 61 68 56 53 55 50 51 46 44 45 42 38 32 23 17 36 36 26 29 21 25 25
48 42 38 36 36 41 47 49 48 54 56 48 54 63 62 63 60 63 79 63 62 66 67 62 53 59 54 57 54 56 45 48 47 48 29 27 26 31 39 27 25 26 18
34 25 28 29 29 33 40 45 47 51 52 51 48 56 59 57 55 57 68 71 71 69 72 64 59 59 57 60 69 68 61 44 46 51 31 20 23 23 26 34 32 32 24
18 19 22 22 24 25 24 27 33 40 44 46 48 53 62 61 61 56 61 54 67 74 71 67 63 60 60 57 59 66 67 59 53 47 55 40 18 23 16 21 26 35 29
13 16 20 17 23 22 19 17 19 25 35 50 44 49 53 57 53 56 55 63 69 70 73 73 71 70 64 59 61 61 68 64 56 51 46 50 49 44 26 20 18 25 18
31 31 32 24 27 25 22 19 19 19 20 24 41 43 52 52 50 50 53 54 53 69 75 76 74 74 69 64 68 67 64 64 58 57 35 39 46 34 26 21 28 17 12
27 24 29 26 26 31 27 26 24 25 21 19 21 37 43 45 47 46 47 49 54 53 73 71 80 76 75 64 57 66 58 57 57 61 51 37 26 30 25 13 8 5 7
22 24 29 30 32 37 37 34 33 32 27 22 19 23 35 41 46 44 47 52 45 49 57 62 72 84 75 66 61 62 62 57 57 49 47 48 54 44 36 31 24 12 3
42 41 38 41 45 50 51 49 46 43 38 30 25 22 23 33 45 50 37 44 51 45 45 55 63 77 84 64 65 59 56 61 52 58 61 60 42 32 24 28 26 11 9
48 55 61 64 71 72 66 60 59 54 47 40 32 27 22 24 29 43 50 39 43 45 49 52 53 64 75 77 62 49 61 67 63 63 66 52 43 34 26 21 16 14 9
48 57 66 73 79 80 79 75 68 66 57 48 39 33 28 25 25 28 37 49 39 42 42 48 56 62 71 70 55 66 63 70 66 65 56 50 40 32 25 16 12 10 10
63 65 69 72 74 75 74 72 73 68 68 56 46 39 33 29 27 27 30 34 50 42 41 44 49 56 59 63 70 67 69 66 71 62 56 45 36 28 25 17 10 2 3
66 67 62 60 64 68 73 73 70 69 67 62 52 42 37 33 30 29 28 28 33 42 42 38 50 62 63 73 82 81 68 57 57 56 49 42 30 26 21 10 15 3 13
68 59 61 60 62 63 67 71 68 64 65 68 58 50 41 38 33 30 27 25 27 31 37 45 45 50 45 69 75 48 33 37 43 53 48 36 37 20 29 21 16 14 10
66 60 62 69 73 75 65 64 68 58 60 64 57 55 46 40 37 34 28 25 27 33 38 47 46 46 59 57 31 21 24 34 54 55 50 31 31 26 25 25 19 14 8
59 63 71 74 80 78 75 69 62 65 55 63 63 56 48 42 41 37 30 29 30 44 39 45 52 55 52 58 38 51 43 50 47 57 34 32 33 26 21 19 20 13 11
57 72 78 81 83 80 76 72 62 56 64 58 61 55 49 46 42 37 34 32 39 41 42 48 52 55 48 41 39 47 54 79 55 52 55 48 39 31 27 24 20 16 13
77 83 84 86 85 83 68 75 62 52 57 61 58 55 53 47 42 40 39 38 39 43 46 49 46 42 49 60 56 67 72 65 68 53 47 44 43 37 28 24 23 20 18
85 83 83 82 85 77 78 69 66 48 58 57 54 53 49 46 41 41 53 51 51 49 51 54 46 43 50 61 81 80 76 75 67 56 47 43 43 36 32 27 24 18 13
81 79 83 78 78 78 68 63 55 51 58 52 48 47 45 43 41 48 50 49 52 58 62 57 40 53 61 76 77 78 81 79 73 63 55 45 41 35 32 28 21 21 25
82 76 78 78 74 70 62 57 47 53 59 43 40 41 40 39 44 46 50 52 65 70 68 65 65 74 80 84 81 79 78 75 80 70 62 52 41 36 31 28 25 25 27
73 69 71 71 68 57 51 49 47 37 34 48 41 39 40 41 44 46 61 70 76 76 76 79 88 92 88 84 76 72 73 77 78 73 65 53 42 39 35 32 33 34 27
64 61 58 63 57 49 48 52 45 36 26 40 42 48 50 55 63 64 74 79 81 85 88 95 101 96 81 65 62 71 73 75 75 71 64 54 48 43 37 30 33 30 26
57 55 54 48 48 42 34 46 41 45 37 64 64 73 75 79 80 80 81 84 89 91 99 100 103 92 82 69 68 71 78 77 76 71 61 51 46 42 37 26 33 33 32
48 44 35 39 38 41 10 28 49 59 76 82 86 85 88 90 93 90 86 86 84 91 108 103 103 104 93 71 70 78 67 75 74 68 58 44 32 31 31 35 34 33 32
36 31 36 34 42 67 85 98 98 88 96 88 85 88 88 90 90 93 93 81 89 99 106 109 112 101 89 75 71 68 72 70 62 54 49 40 35 37 36 32 32 34 34
Wind_Direction_500mb
265 265 262 258 256 256 257 253 255 253 249 247 233 234 230 231 230 230 224 223 222 215 219 211 214 209 208 208 218 213 208 211 210 207 228 223 222 238 239 248 243 243 260
273 264 265 261 260 264 266 264 262 258 253 245 236 234 236 230 234 233 224 223 221 221 220 217 217 215 208 214 205 206 210 212 214 209 200 228 227 239 242 240 241 241 240
282 274 276 275 274 278 273 266 264 258 248 248 242 237 233 233 230 229 227 228 224 222 220 226 207 220 211 216 208 216 211 210 214 219 202 205 233 224 229 239 234 239 248
237 271 280 268 281 293 294 272 266 257 253 249 246 240 234 233 232 232 226 224 227 228 229 224 224 213 220 213 225 218 221 208 212 218 222 224 227 203 193 226 253 249 248
304 305 303 298 300 297 308 302 289 277 265 242 242 241 239 237 237 232 230 233 226 224 229 227 222 217 218 213 218 220 215 218 210 215 223 223 233 233 258 251 236 265 249
316 295 282 278 279 286 298 309 307 306 296 268 230 245 236 233 237 232 231 230 232 228 227 227 227 228 222 215 218 222 227 221 227 220 223 219 229 234 229 259 262 252 207
311 324 303 292 291 288 290 297 301 307 310 307 267 242 240 238 234 235 235 231 232 228 226 227 225 228 229 219 217 214 215 221 213 221 232 229 207 207 207 193 199 291 348
286 292 296 293 290 296 297 297 297 298 299 303 294 263 243 234 237 238 235 233 230 233 229 231 226 224 231 229 219 216 214 220 217 218 220 219 218 235 232 231 230 223 344
306 301 296 291 288 288 289 288 289 287 290 291 287 277 261 239 238 228 238 240 235 233 234 234 231 229 225 224 219 218 222 217 208 212 216 218 224 222 231 226 236 227 89
301 298 296 294 289 291 289 284 278 277 276 279 278 271 260 253 239 244 237 233 237 237 240 237 238 232 227 217 210 209 216 209 208 212 210 220 218 220 215 215 218 203 147
302 296 294 291 289 284 280 278 276 272 269 267 267 266 263 256 254 243 241 237 234 238 236 240 236 228 224 219 210 203 206 212 207 203 220 211 210 204 201 200 189 134 96
310 306 302 297 291 287 282 277 273 266 267 261 258 259 258 257 253 250 239 237 237 239 239 243 242 233 226 215 205 209 205 209 208 217 201 205 193 197 193 188 188 172 312
308 306 302 301 297 290 285 283 273 265 261 260 253 252 254 256 251 250 248 237 239 240 241 243 239 239 233 223 207 204 195 207 212 194 193 187 187 180 178 201 248 189 218
306 307 304 300 301 295 288 286 287 269 260 260 248 247 245 249 250 249 250 246 237 237 239 245 241 247 231 186 190 182 183 200 203 175 169 173 176 224 245 203 159 175 181
303 304 305 302 299 301 297 285 280 275 258 253 249 246 245 244 249 248 245 243 233 232 228 230 222 228 217 210 205 192 158 181 180 185 175 185 203 184 159 154 150 135 139
300 302 302 301 302 301 302 295 273 267 261 248 246 246 242 241 242 244 243 239 228 226 220 213 216 220 233 232 252 244 224 193 184 172 174 202 142 149 160 138 127 127 119
302 302 302 302 304 305 301 298 291 258 256 250 240 237 236 236 236 236 234 239 230 230 218 223 218 216 224 214 216 211 188 172 165 165 160 156 150 156 144 132 121 112 97
305 303 303 304 302 305 295 293 292 253 251 247 238 234 233 232 230 228 226 228 233 228 220 213 215 218 199 188 180 171 167 152 152 152 147 149 146 142 139 132 117 106 88
303 300 303 300 298 295 293 288 283 257 244 240 232 230 227 224 222 219 218 219 220 215 209 206 207 208 186 180 179 173 159 148 143 145 149 147 141 142 139 122 111 98 71
303 302 304 298 295 293 293 288 275 268 231 233 227 222 217 217 216 220 212 209 209 203 190 183 186 182 169 173 172 161 154 149 143 145 142 141 139 135 128 113 106 93 70
307 305 303 300 296 295 290 283 274 264 224 215 217 211 211 211 208 204 206 206 193 181 172 164 159 154 159 163 158 157 152 144 138 139 136 131 128 119 110 107 105 94 87
310 313 308 302 301 297 286 272 264 258 233 201 204 203 210 205 196 200 184 182 179 170 159 154 151 151 152 149 146 149 146 145 140 136 128 121 118 109 105 100 94 78 68
321 319 318 311 304 297 281 261 248 231 205 193 204 192 185 181 177 182 174 168 165 159 151 152 146 145 145 143 145 146 146 139 135 127 123 120 113 105 98 96 89 80 65
327 326 323 323 322 318 288 246 225 193 179 160 163 162 159 154 153 156 160 160 160 156 154 148 143 141 139 136 147 146 139 135 127 120 116 110 102 91 81 77 65 58 56
328 334 348 352 354 22 328 200 161 163 156 150 144 144 147 147 144 139 141 151 151 159 159 148 141 139 132 139 138 139 132 126 119 114 101 96 105 97 83 69 61 59 50
347 11 24 25 56 72 79 122 144 155 150 145 141 142 142 142 144 143 133 134 141 146 150 140 130 126 130 143 136 128 123 116 104 112 111 111 98 85 76 69 61 53 47
Wind_Speed_850mb
55 46 44 45 50 51 48 48 53 59 55 44 55 59 62 60 61 72 61 65 67 61 68 56 53 55 50 51 46 44 45 42 38 32 23 17 36 36 26 29 21 25 25
48 42 38 36 36 41 47 49 48 54 56 48 54 63 62 63 60 63 79 63 62 66 67 62 53 59 54 57 54 56 45 48 47 48 29 27 26 31 39 27 25 26 18
34 25 28 29 29 33 40 45 47 51 52 51 48 56 59 57 55 57 68 71 71 69 72 64 59 59 57 60 69 68 61 44 46 51 31 20 23 23 26 34 32 32 24
18 19 22 22 24 25 24 27 33 40 44 46 48 53 62 61 61 56 61 54 67 74 71 67 63 60 60 57 59 66 67 59 53 47 55 40 18 23 16 21 26 35 29
13 16 20 17 23 22 19 17 19 25 35 50 44 49 53 57 53 56 55 63 69 70 73 73 71 70 64 59 61 61 68 64 56 51 46 50 49 44 26 20 18 25 18
31 31 32 24 27 25 22 19 19 19 20 24 41 43 52 52 50 50 53 54 53 69 75 76 74 74 69 64 68 67 64 64 58 57 35 39 46 34 26 21 28 17 12
27 24 29 26 26 31 27 26 24 25 21 19 21 37 43 45 47 46 47 49 54 53 73 71 80 76 75 64 57 66 58 57 57 61 51 37 26 30 25 13 8 5 7
22 24 29 30 32 37 37 34 33 32 27 22 19 23 35 41 46 44 47 52 45 49 57 62 72 84 75 66 61 62 62 57 57 49 47 48 54 44 36 31 24 12 3
42 41 38 41 45 50 51 49 46 43 38 30 25 22 23 33 45 50 37 44 51 45 45 55 63 77 84 64 65 59 56 61 52 58 61 60 42 32 24 28 26 11 9
48 55 61 64 71 72 66 60 59 54 47 40 32 27 22 24 29 43 50 39 43 45 49 52 53 64 75 77 62 49 61 67 63 63 66 52 43 34 26 21 16 14 9
48 57 66 73 79 80 79 75 68 66 57 48 39 33 28 25 25 28 37 49 39 42 42 48 56 62 71 70 55 66 63 70 66 65 56 50 40 32 25 16 12 10 10
63 65 69 72 74 75 74 72 73 68 68 56 46 39 33 29 27 27 30 34 50 42 41 44 49 56 59 63 70 67 69 66 71 62 56 45 36 28 25 17 10 2 3
66 67 62 60 64 68 73 73 70 69 67 62 52 42 37 33 30 29 28 28 33 42 42 38 50 62 63 73 82 81 68 57 57 56 49 42 30 26 21 10 15 3 13
68 59 61 60 62 63 67 71 68 64 65 68 58 50 41 38 33 30 27 25 27 31 37 45 45 50 45 69 75 48 33 37 43 53 48 36 37 20 29 21 16 14 10
66 60 62 69 73 75 65 64 68 58 60 64 57 55 46 40 37 34 28 25 27 33 38 47 46 46 59 57 31 21 24 34 54 55 50 31 31 26 25 25 19 14 8
59 63 71 74 80 78 75 69 62 65 55 63 63 56 48 42 41 37 30 29 30 44 39 45 52 55 52 58 38 51 43 50 47 57 34 32 33 26 21 19 20 13 11
57 72 78 81 83 80 76 72 62 56 64 58 61 55 49 46 42 37 34 32 39 41 42 48 52 55 48 41 39 47 54 79 55 52 55 48 39 31 27 24 20 16 13
77 83 84 86 85 83 68 75 62 52 57 61 58 55 53 47 42 40 39 38 39 43 46 49 46 42 49 60 56 67 72 65 68 53 47 44 43 37 28 24 23 20 18
85 83 83 82 85 77 78 69 66 48 58 57 54 53 49 46 41 41 53 51 51 49 51 54 46 43 50 61 81 80 76 75 67 56 47 43 43 36 32 27 24 18 13
81 79 83 78 78 78 68 63 55 51 58 52 48 47 45 43 41 48 50 49 52 58 62 57 40 53 61 76 77 78 81 79 73 63 55 45 41 35 32 28 21 21 25
82 76 78 78 74 70 62 57 47 53 59 43 40 41 40 39 44 46 50 52 65 70 68 65 65 74 80 84 81 79 78 75 80 70 62 52 41 36 31 28 25 25 27
73 69 71 71 68 57 51 49 47 37 34 48 41 39 40 41 44 46 61 70 76 76 76 79 88 92 88 84 76 72 73 77 78 73 65 53 42 39 35 32 33 34 27
64 61 58 63 57 49 48 52 45 36 26 40 42 48 50 55 63 64 74 79 81 85 88 95 101 96 81 65 62 71 73 75 75 71 64 54 48 43 37 30 33 30 26
57 55 54 48 48 42 34 46 41 45 37 64 64 73 75 79 80 80 81 84 89 91 99 100 103 92 82 69 68 71 78 77 76 71 61 51 46 42 37 26 33 33 32
48 44 35 39 38 41 10 28 49 59 76 82 86 85 88 90 93 90 86 86 84 91 108 103 103 104 93 71 70 78 67 75 74 68 58 44 32 31 31 35 34 33 32
36 31 36 34 42 67 85 98 98 88 96 88 85 88 88 90 90 93 93 81 89 99 106 109 112 101 89 75 71 68 72 70 62 54 49 40 35 37 36 32 32 34 34
Wind_Direction_850mb
265 265 262 258 256 256 257 253 255 253 249 247 233 234 230 231 230 230 224 223 222 215 219 211 214 209 208 208 218 213 208 211 210 207 228 223 222 238 239 248 243 243 260
273 264 265 261 260 264 266 264 262 258 253 245 236 234 236 230 234 233 224 223 221 221 220 217 217 215 208 214 205 206 210 212 214 209 200 228 227 239 242 240 241 241 240
282 274 276 275 274 278 273 266 264 258 248 248 242 237 233 233 230 229 227 228 224 222 220 226 207 220 211 216 208 216 211 210 214 219 202 205 233 224 229 239 234 239 248
237 271 280 268 281 293 294 272 266 257 253 249 246 240 234 233 232 232 226 224 227 228 229 224 224 213 220 213 225 218 221 208 212 218 222 224 227 203 193 226 253 249 248
304 305 303 298 300 297 308 302 289 277 265 242 242 241 239 237 237 232 230 233 226 224 229 227 222 217 218 213 218 220 215 218 210 215 223 223 233 233 258 251 236 265 249
316 295 282 278 279 286 298 309 307 306 296 268 230 245 236 233 237 232 231 230 232 228 227 227 227 228 222 215 218 222 227 221 227 220 223 219 229 234 229 259 262 252 207
311 324 303 292 291 288 290 297 301 307 310 307 267 242 240 238 234 235 235 231 232 228 226 227 225 228 229 219 217 214 215 221 213 221 232 229 207 207 207 193 199 291 348
286 292 296 293 290 296 297 297 297 298 299 303 294 263 243 234 237 238 235 233 230 233 229 231 226 224 231 229 219 216 214 220 217 218 220 219 218 235 232 231 230 223 344
306 301 296 291 288 288 289 288 289 287 290 291 287 277 261 239 238 228 238 240 235 233 234 234 231 229 225 224 219 218 222 217 208 212 216 218 224 222 231 226 236 227 89
301 298 296 294 289 291 289 284 278 277 276 279 278 271 260 253 239 244 237 233 237 237 240 237 238 232 227 217 210 209 216 209 208 212 210 220 218 220 215 215 218 203 147
302 296 294 291 289 284 280 278 276 272 269 267 267 266 263 256 254 243 241 237 234 238 236 240 236 228 224 219 210 203 206 212 207 203 220 211 210 204 201 200 189 134 96
310 306 302 297 291 287 282 277 273 266 267 261 258 259 258 257 253 250 239 237 237 239 239 243 242 233 226 215 205 209 205 209 208 217 201 205 193 197 193 188 188 172 312
308 306 302 301 297 290 285 283 273 265 261 260 253 252 254 256 251 250 248 237 239 240 241 243 239 239 233 223 207 204 195 207 212 194 193 187 187 180 178 201 248 189 218
306 307 304 300 301 295 288 286 287 269 260 260 248 247 245 249 250 249 250 246 237 237 239 245 241 247 231 186 190 182 183 200 203 175 169 173 176 224 245 203 159 175 181
303 304 305 302 299 301 297 285 280 275 258 253 249 246 245 244 249 248 245 243 233 232 228 230 222 228 217 210 205 192 158 181 180 185 175 185 203 184 159 154 150 135 139
300 302 302 301 302 301 302 295 273 267 261 248 246 246 242 241 242 244 243 239 228 226 220 213 216 220 233 232 252 244 224 193 184 172 174 202 142 149 160 138 127 127 119
302 302 302 302 304 305 301 298 291 258 256 250 240 237 236 236 236 236 234 239 230 230 218 223 218 216 224 214 216 211 188 172 165 165 160 156 150 156 144 132 121 112 97
305 303 303 304 302 305 295 293 292 253 251 247 238 234 233 232 230 228 226 228 233 228 220 213 215 218 199 188 180 171 167 152 152 152 147 149 146 142 139 132 117 106 88
303 300 303 300 298 295 293 288 283 257 244 240 232 230 227 224 222 219 218 219 220 215 209 206 207 208 186 180 179 173 159 148 143 145 149 147 141 142 139 122 111 98 71
303 302 304 298 295 293 293 288 275 268 231 233 227 222 217 217 216 220 212 209 209 203 190 183 186 182 169 173 172 161 154 149 143 145 142 141 139 135 128 113 106 93 70
307 305 303 300 296 295 290 283 274 264 224 215 217 211 211 211 208 204 206 206 193 181 172 164 159 154 159 163 158 157 152 144 138 139 136 131 128 119 110 107 105 94 87
310 313 308 302 301 297 286 272 264 258 233 201 204 203 210 205 196 200 184 182 179 170 159 154 151 151 152 149 146 149 146 145 140 136 128 121 118 109 105 100 94 78 68
321 319 318 311 304 297 281 261 248 231 205 193 204 192 185 181 177 182 174 168 165 159 151 152 146 145 145 143 145 146 146 139 135 127 123 120 113 105 98 96 89 80 65
327 326 323 323 322 318 288 246 225 193 179 160 163 162 159 154 153 156 160 160 160 156 154 148 143 141 139 136 147 146 139 135 127 120 116 110 102 91 81 77 65 58 56
328 334 348 352 354 22 328 200 161 163 156 150 144 144 147 147 144 139 141 151 151 159 159 148 141 139 132 139 138 139 132 126 119 114 101 96 105 97 83 69 61 59 50
347 11 24 25 56 72 79 122 144 155 150 145 141 142 142 142 144 143 133 134 141 146 150 140 130 126 130 143 136 128 123 116 104 112 111 111 98 85 76 69 61 53 47